Stations météo

réclame
Mon MeteoGroup
Logan Botanic Garden, Grande-Bretagne (99193): Température de l'air & dewpoint: 16.09.2018 07:00:00 - 22.09.2018 07:00:00 (BST)Logan Botanic Garden, Grande-Bretagne (99193): Température de l'air -20cm: 16.09.2018 07:00:00 - 22.09.2018 07:00:00 (BST)Logan Botanic Garden, Grande-Bretagne (99193): Quantités de précipitations: 16.09.2018 07:00:00 - 22.09.2018 07:00:00 (BST)
Date & Time tt [°C] td [°C] tt -20cm [°C] rr [mm]
22.09.2018 07:00:00 - - - -
22.09.2018 06:00:00 9,1 6,2 - 0,0
22.09.2018 05:00:00 9,1 5,8 - 0,0
22.09.2018 04:00:00 9,2 5,9 - 0,0
22.09.2018 03:00:00 9,0 6,0 - 0,0
22.09.2018 02:00:00 9,2 6,0 - 0,0
22.09.2018 01:00:00 9,8 6,0 - 0,0
22.09.2018 00:00:00 9,8 6,5 - 0,0
21.09.2018 23:00:00 10,3 5,3 - 0,0
21.09.2018 22:00:00 10,5 6,1 - 0,0
21.09.2018 21:00:00 10,7 6,3 - 0,0
21.09.2018 20:00:00 10,9 6,9 - 0,2
21.09.2018 19:00:00 11,0 8,0 - 0,4
21.09.2018 18:00:00 12,1 7,4 - 0,0
21.09.2018 17:00:00 13,3 7,0 - 0,0
21.09.2018 16:00:00 12,3 7,5 - 0,0
21.09.2018 15:00:00 13,0 7,6 - 0,0
21.09.2018 14:00:00 11,4 9,0 - 1,8
21.09.2018 13:00:00 12,2 7,6 - 0,0
21.09.2018 12:00:00 11,0 7,6 - 0,0
21.09.2018 11:00:00 9,2 6,6 - 0,0
21.09.2018 10:00:00 10,1 6,4 13,9 0,0
21.09.2018 09:00:00 9,1 5,9 - 0,0
21.09.2018 08:00:00 8,8 6,3 - 0,0
21.09.2018 07:00:00 8,8 6,4 - 0,0
21.09.2018 06:00:00 9,0 6,8 - 0,0
21.09.2018 05:00:00 9,1 5,9 - 0,0
21.09.2018 04:00:00 8,8 6,8 - 0,6
21.09.2018 03:00:00 8,8 6,9 - 0,0
21.09.2018 02:00:00 7,5 5,5 - 0,2
21.09.2018 01:00:00 7,3 5,8 - 0,6
21.09.2018 00:00:00 7,4 5,7 - 0,8
20.09.2018 23:00:00 7,4 5,5 - 0,4
20.09.2018 22:00:00 7,7 6,1 - 0,4
20.09.2018 21:00:00 7,8 6,2 - 0,6
20.09.2018 20:00:00 7,6 5,8 - 1,6
20.09.2018 19:00:00 9,7 6,1 - 0,6
20.09.2018 18:00:00 11,2 5,7 - 0,0
20.09.2018 17:00:00 12,0 6,4 - 0,0
20.09.2018 16:00:00 11,9 6,1 - 0,0
20.09.2018 15:00:00 11,8 6,2 - 0,0
20.09.2018 14:00:00 12,0 6,0 - 0,0
20.09.2018 13:00:00 12,0 6,6 - 0,0
20.09.2018 12:00:00 11,7 6,3 - 0,0
20.09.2018 11:00:00 11,7 7,0 - 0,0
20.09.2018 10:00:00 11,2 7,3 14,4 0,0
20.09.2018 09:00:00 11,0 7,2 - 0,0
20.09.2018 08:00:00 10,7 6,9 - 0,0
20.09.2018 07:00:00 10,3 6,9 - 0,0
20.09.2018 06:00:00 10,3 6,6 - 0,0
20.09.2018 05:00:00 10,4 7,0 - 0,0
20.09.2018 04:00:00 10,4 7,0 - 0,0
20.09.2018 03:00:00 10,8 7,0 - 0,0
20.09.2018 02:00:00 10,9 7,0 - 0,0
20.09.2018 01:00:00 11,1 6,9 - 0,0
20.09.2018 00:00:00 11,1 6,5 - 0,0
19.09.2018 23:00:00 11,7 6,2 - 0,0
19.09.2018 22:00:00 11,8 5,9 - 0,0
19.09.2018 21:00:00 11,8 5,6 - 0,0
19.09.2018 20:00:00 12,1 5,9 - 0,0
19.09.2018 19:00:00 11,8 5,6 - 0,0
19.09.2018 18:00:00 12,5 6,9 - 0,0
19.09.2018 17:00:00 11,9 5,6 - 0,0
19.09.2018 16:00:00 12,9 7,0 - 0,0
19.09.2018 15:00:00 14,1 8,1 - 0,0
19.09.2018 14:00:00 13,5 8,5 - 0,0
19.09.2018 13:00:00 13,9 7,8 - 0,0
19.09.2018 12:00:00 14,9 8,1 - 0,2
19.09.2018 11:00:00 14,6 13,8 - 1,6
19.09.2018 10:00:00 15,6 12,6 14,7 0,0
19.09.2018 09:00:00 15,1 12,6 - 0,4
19.09.2018 08:00:00 14,7 13,3 - 0,2
19.09.2018 07:00:00 14,5 12,8 - 0,0
19.09.2018 06:00:00 14,5 10,1 - 0,0
19.09.2018 05:00:00 14,2 10,2 - 0,0
19.09.2018 04:00:00 14,0 9,8 - 0,0
19.09.2018 03:00:00 13,7 9,6 - 0,0
19.09.2018 02:00:00 14,5 10,3 - 0,0
19.09.2018 01:00:00 14,8 10,1 - 0,0
19.09.2018 00:00:00 14,9 11,7 - 0,0
18.09.2018 23:00:00 14,9 12,1 - 0,0
18.09.2018 22:00:00 14,9 12,1 - 0,0
18.09.2018 21:00:00 15,1 11,7 - 0,0
18.09.2018 20:00:00 14,9 12,9 - 0,0
18.09.2018 19:00:00 15,1 13,4 - 0,0
18.09.2018 18:00:00 15,2 14,2 - 2,4
18.09.2018 17:00:00 15,4 13,4 - 0,0
18.09.2018 16:00:00 14,8 12,8 - 0,0
18.09.2018 15:00:00 15,1 12,4 - 0,0
18.09.2018 14:00:00 15,2 12,0 - 0,0
18.09.2018 13:00:00 15,7 12,5 - 0,0
18.09.2018 12:00:00 17,0 14,2 - 0,0
18.09.2018 11:00:00 15,7 15,2 - 0,0
18.09.2018 10:00:00 15,1 14,7 14,7 0,0
18.09.2018 09:00:00 14,9 14,5 - 0,0
18.09.2018 08:00:00 14,9 14,5 - 0,0
18.09.2018 07:00:00 14,5 14,1 - 0,4
18.09.2018 06:00:00 14,4 13,9 - 1,0
18.09.2018 05:00:00 14,6 13,9 - 1,2
18.09.2018 04:00:00 14,7 14,1 - 3,2
18.09.2018 03:00:00 15,3 14,1 - 0,6
18.09.2018 02:00:00 15,5 14,2 - 0,4
18.09.2018 01:00:00 16,5 13,6 - 0,0
18.09.2018 00:00:00 16,3 13,4 - 0,0
17.09.2018 23:00:00 16,3 13,2 - 0,0
17.09.2018 22:00:00 16,1 13,8 - 0,0
17.09.2018 21:00:00 16,2 14,1 - 0,0
17.09.2018 20:00:00 16,1 14,4 - 0,0
17.09.2018 19:00:00 16,3 14,8 - 0,0
17.09.2018 18:00:00 16,3 14,8 - 0,0
17.09.2018 17:00:00 16,3 14,8 - 0,0
17.09.2018 16:00:00 15,9 15,2 - 0,0
17.09.2018 15:00:00 15,7 15,3 - 0,0
17.09.2018 14:00:00 14,7 14,2 - 0,2
17.09.2018 13:00:00 14,4 13,3 - 0,2
17.09.2018 12:00:00 14,4 12,1 - 0,0
17.09.2018 11:00:00 14,5 12,5 - 0,0
17.09.2018 10:00:00 14,3 12,6 14,7 0,0
17.09.2018 09:00:00 14,0 12,5 - 0,0
17.09.2018 08:00:00 13,5 12,0 - 0,0
17.09.2018 07:00:00 13,0 11,1 - 0,0
17.09.2018 06:00:00 13,1 11,4 - 0,0
17.09.2018 05:00:00 13,1 11,3 - 0,0
17.09.2018 04:00:00 12,9 10,7 - 0,0
17.09.2018 03:00:00 12,7 10,3 - 0,0
17.09.2018 02:00:00 12,5 9,6 - 0,0
17.09.2018 01:00:00 13,3 10,1 - 0,0
17.09.2018 00:00:00 13,4 10,3 - 0,0
16.09.2018 23:00:00 13,7 12,5 - 0,0
16.09.2018 22:00:00 14,0 12,5 - 0,0
16.09.2018 21:00:00 14,2 12,6 - 0,0
16.09.2018 20:00:00 14,2 12,7 - 0,0
16.09.2018 19:00:00 13,8 10,6 - 0,0
16.09.2018 18:00:00 14,5 10,1 - 0,0
16.09.2018 17:00:00 14,8 9,7 - 0,0
16.09.2018 16:00:00 15,1 9,8 - 0,0
16.09.2018 15:00:00 15,7 11,0 - 0,0
16.09.2018 14:00:00 16,0 11,6 - 0,0
16.09.2018 13:00:00 15,7 11,1 - 0,0
16.09.2018 12:00:00 15,9 11,8 - 0,0
16.09.2018 11:00:00 15,9 12,3 - 0,0
16.09.2018 10:00:00 14,9 11,8 14,7 0,0
16.09.2018 09:00:00 14,0 11,8 - 0,0
16.09.2018 08:00:00 14,2 11,8 - 0,0
16.09.2018 07:00:00 13,7 12,1 - 0,0

tt = Température de l'air
td = dewpoint
tt -20cm = Température de l'air -20cm
rr = Quantités de précipitations

stations d'obs. à proximité